Weather reports worldwide

Advertisment
Ferrara, Italy (16138): temperature & dewpoint: 20.03.2019 08:00:00 - 26.03.2019 08:00:00 (CET)Ferrara, Italy (16138): wind speed: 20.03.2019 08:00:00 - 26.03.2019 08:00:00 (CET)Ferrara, Italy (16138): wind direction: 20.03.2019 08:00:00 - 26.03.2019 08:00:00 (CET)Ferrara, Italy (16138): reduced air pressure: 20.03.2019 08:00:00 - 26.03.2019 08:00:00 (CET)Ferrara, Italy (16138): visibility: 20.03.2019 08:00:00 - 26.03.2019 08:00:00 (CET)
Date & Time tt [°C] td [°C] ff [km/h] ff [kn] dd ppp [hPa] vv [km]
26.03.2019 08:00:00 - - - - - - -
26.03.2019 07:00:00 6,4 4,4 0 0 N 1020,2 10
26.03.2019 06:00:00 - - - - - - -
26.03.2019 05:00:00 - - - - - - -
26.03.2019 04:00:00 - - - - - - -
26.03.2019 03:00:00 - - - - - - -
26.03.2019 02:00:00 - - - - - - -
26.03.2019 01:00:00 - - - - - - -
26.03.2019 00:00:00 - - - - - - -
25.03.2019 23:00:00 - - - - - - -
25.03.2019 22:00:00 - - - - - - -
25.03.2019 21:00:00 - - - - - - -
25.03.2019 20:00:00 - - - - - - -
25.03.2019 19:00:00 19,0 6,2 0 0 N 1005,9 10
25.03.2019 18:00:00 22,0 7,0 - - - - 10
25.03.2019 17:00:00 24,0 8,0 0 0 N - 10
25.03.2019 16:00:00 24,0 8,4 0 0 N 1007,6 10
25.03.2019 15:00:00 24,0 9,0 5 3 W - 10
25.03.2019 14:00:00 24,0 9,0 5 3 SW - 10
25.03.2019 13:00:00 24,4 9,6 9 5 ESE 1011,1 10
25.03.2019 12:00:00 23,0 11,0 - - - - 10
25.03.2019 11:00:00 21,0 12,0 5 3 W - 10
25.03.2019 10:00:00 17,6 11,0 0 0 N 1013,3 10
25.03.2019 09:00:00 13,0 8,0 - - - - 10
25.03.2019 08:00:00 9,0 6,0 - - - - 10
25.03.2019 07:00:00 7,4 4,9 0 0 N 1013,9 10
25.03.2019 06:00:00 - - - - - - -
25.03.2019 05:00:00 - - - - - - -
25.03.2019 04:00:00 - - - - - - -
25.03.2019 03:00:00 - - - - - - -
25.03.2019 02:00:00 - - - - - - -
25.03.2019 01:00:00 - - - - - - -
25.03.2019 00:00:00 - - - - - - -
24.03.2019 23:00:00 - - - - - - -
24.03.2019 22:00:00 - - - - - - -
24.03.2019 21:00:00 - - - - - - -
24.03.2019 20:00:00 - - - - - - -
24.03.2019 19:00:00 19,8 5,1 0 0 N 1017,5 10
24.03.2019 18:00:00 23,0 7,0 - - - - 10
24.03.2019 17:00:00 25,0 8,0 - - - - 10
24.03.2019 16:00:00 25,4 8,4 0 0 N 1018,6 10
24.03.2019 15:00:00 25,0 8,0 - - - - 10
24.03.2019 14:00:00 26,0 10,0 - - - - 10
24.03.2019 13:00:00 25,4 10,5 0 0 N 1021,6 10
24.03.2019 12:00:00 24,0 12,0 - - - - 10
24.03.2019 11:00:00 21,0 11,0 - - - - 10
24.03.2019 10:00:00 17,6 11,2 0 0 N 1023,4 10
24.03.2019 09:00:00 12,0 8,0 - - - - 10
24.03.2019 08:00:00 8,0 5,0 8 4 W - 10
24.03.2019 07:00:00 6,2 3,7 0 0 N 1023,3 8
24.03.2019 06:00:00 - - - - - - -
24.03.2019 05:00:00 - - - - - - -
24.03.2019 04:00:00 - - - - - - -
24.03.2019 03:00:00 - - - - - - -
24.03.2019 02:00:00 - - - - - - -
24.03.2019 01:00:00 - - - - - - -
24.03.2019 00:00:00 - - - - - - -
23.03.2019 23:00:00 - - - - - - -
23.03.2019 22:00:00 - - - - - - -
23.03.2019 21:00:00 - - - - - - -
23.03.2019 20:00:00 - - - - - - -
23.03.2019 19:00:00 18,6 4,0 0 0 N 1023,3 40
23.03.2019 18:00:00 22,0 6,0 - - - - 10
23.03.2019 17:00:00 23,0 6,0 11 6 N - 10
23.03.2019 16:00:00 23,6 6,8 9 5 N 1023,6 20
23.03.2019 15:00:00 24,0 7,0 9 5 NE - 10
23.03.2019 14:00:00 24,0 8,0 13 7 - - 10
23.03.2019 13:00:00 24,0 8,8 11 6 N 1025,5 10
23.03.2019 12:00:00 22,0 9,0 5 3 - - 10
23.03.2019 11:00:00 20,0 9,0 5 3 - - 10
23.03.2019 10:00:00 15,8 8,5 8 4 N 1026,4 10
23.03.2019 09:00:00 10,0 6,0 - - - - 10
23.03.2019 08:00:00 6,0 3,0 9 5 WNW - 10
23.03.2019 07:00:00 4,2 0,7 0 0 N 1026,4 10
23.03.2019 06:00:00 - - - - - - -
23.03.2019 05:00:00 - - - - - - -
23.03.2019 04:00:00 - - - - - - -
23.03.2019 03:00:00 - - - - - - -
23.03.2019 02:00:00 - - - - - - -
23.03.2019 01:00:00 - - - - - - -
23.03.2019 00:00:00 - - - - - - -
22.03.2019 23:00:00 - - - - - - -
22.03.2019 22:00:00 - - - - - - -
22.03.2019 21:00:00 - - - - - - -
22.03.2019 20:00:00 - - - - - - -
22.03.2019 19:00:00 15,4 0,0 0 0 N 1027,2 20
22.03.2019 18:00:00 18,0 2,0 - - - - 10
22.03.2019 17:00:00 19,0 4,0 4 2 E - 10
22.03.2019 16:00:00 19,8 3,9 9 5 NE 1028,2 20
22.03.2019 15:00:00 19,0 3,0 - - - - 10
22.03.2019 14:00:00 20,0 5,0 - - - - 10
22.03.2019 13:00:00 19,0 5,1 9 5 N 1030,6 20
22.03.2019 12:00:00 18,0 5,0 - - - - 10
22.03.2019 11:00:00 17,0 7,0 - - - - 10
22.03.2019 10:00:00 13,0 6,8 4 2 N 1031,3 10
22.03.2019 09:00:00 7,0 3,0 - - - - 10
22.03.2019 08:00:00 4,0 0,0 - - - - 10
22.03.2019 07:00:00 2,2 -1,2 8 4 SW 1031,1 10
22.03.2019 06:00:00 - - - - - - -
22.03.2019 05:00:00 - - - - - - -
22.03.2019 04:00:00 - - - - - - -
22.03.2019 03:00:00 - - - - - - -
22.03.2019 02:00:00 - - - - - - -
22.03.2019 01:00:00 - - - - - - -
22.03.2019 00:00:00 - - - - - - -
21.03.2019 23:00:00 - - - - - - -
21.03.2019 22:00:00 - - - - - - -
21.03.2019 21:00:00 - - - - - - -
21.03.2019 20:00:00 - - - - - - -
21.03.2019 19:00:00 12,8 -0,1 0 0 N 1030,3 20
21.03.2019 18:00:00 14,0 0,0 - - - - 10
21.03.2019 17:00:00 15,0 1,0 - - - - 10
21.03.2019 16:00:00 15,6 4,6 16 9 ENE 1031,3 20
21.03.2019 15:00:00 16,0 2,0 - - - - 10
21.03.2019 14:00:00 16,0 3,0 - - - - 10
21.03.2019 13:00:00 15,2 3,7 5 3 NNE 1033,1 20
21.03.2019 12:00:00 15,0 4,0 - - - - 10
21.03.2019 11:00:00 13,0 4,0 - - - - 10
21.03.2019 10:00:00 11,0 3,5 8 4 NNE 1033,3 20
21.03.2019 09:00:00 8,0 1,0 - - - - 10
21.03.2019 08:00:00 5,0 0,0 - - - - 10
21.03.2019 07:00:00 3,2 -1,7 4 2 WNW 1032,3 10
21.03.2019 06:00:00 - - - - - - -
21.03.2019 05:00:00 - - - - - - -
21.03.2019 04:00:00 - - - - - - -
21.03.2019 03:00:00 - - - - - - -
21.03.2019 02:00:00 - - - - - - -
21.03.2019 01:00:00 - - - - - - -
21.03.2019 00:00:00 - - - - - - -
20.03.2019 23:00:00 - - - - - - -
20.03.2019 22:00:00 - - - - - - -
20.03.2019 21:00:00 - - - - - - -
20.03.2019 20:00:00 - - - - - - -
20.03.2019 19:00:00 10,2 -3,8 2 1 NE 1030,3 20
20.03.2019 18:00:00 12,0 -3,0 - - - - 10
20.03.2019 17:00:00 13,0 -2,0 - - - - 10
20.03.2019 16:00:00 13,2 -1,9 9 5 NNE 1030,1 30
20.03.2019 15:00:00 13,0 -2,0 - - - - 10
20.03.2019 14:00:00 14,0 -2,0 - - - - 10
20.03.2019 13:00:00 13,4 -0,6 21 11 NNE 1031,1 20
20.03.2019 12:00:00 13,0 0,0 - - - - 10
20.03.2019 11:00:00 13,0 1,0 - - - - 10
20.03.2019 10:00:00 12,0 2,2 22 12 NE 1030,4 30
20.03.2019 09:00:00 9,0 4,0 - - - - 10
20.03.2019 08:00:00 6,0 2,0 - - - - 10

tt = temperature
td = dewpoint
ff = wind speed
dd = wind direction
ppp = reduced air pressure
vv = visibility

Next stations